Regional Weather Roundup
Issued by NWS

Home | Current Version | Previous Version | Graphics & Text | Print | Product List | Glossary On
Versions: 1 2 3 4 5 6 7 8 9 10 11 12 13 14 15 16 17 18 19 20 21 22 23 24 25 26 27 28 29 30 31 32 33 34 35 36 37 38 39 40 41 42 43 44 45 46 47 48 49 50
000
ASUS45 KPSR 161600
RWRAZ

PRELIMINARY ARIZONA REGIONAL HOURLY WEATHER ROUNDUP
NATIONAL WEATHER SERVICE PHOENIX AZ
900 AM MST WED APR 16 2014

NOTE: FAIR INDICATES FEW OR NO CLOUDS BELOW 12,000 FEET WITH NO
SIGNIFICANT WEATHER AND/OR OBSTRUCTIONS TO VISIBILITY.

AZZ001>003-036-161700-
NORTHWEST ARIZONA

CITY           SKY/WX    TMP DP  RH WIND       PRES   REMARKS
KINGMAN        SUNNY     73   4   7 CALM      29.86S
$$

AZZ004>008-015-016-018-161700-
NORTH CENTRAL ARIZONA

CITY           SKY/WX    TMP DP  RH WIND       PRES   REMARKS
GRAND CANYON   MOSUNNY   57   7  13 W7        29.99S
WILLIAMS       SUNNY     57  10  15 W9        30.06S
PRESCOTT       SUNNY     61   7  11 VRB3      29.94S
FLAGSTAFF      SUNNY     57  13  17 W7G18     29.99S
PAYSON         SUNNY     64   7  10 CALM      29.96S
PAGE           PTSUNNY   60  13  15 NW6       29.90R
$$

AZZ009>014-017-161700-
NORTHEAST ARIZONA

CITY           SKY/WX    TMP DP  RH WIND       PRES   REMARKS
WINSLOW        NOT AVBL
SAINT JOHNS    SUNNY     60   9  13 VRB6      29.94S
WINDOW ROCK    SUNNY     55   4  12 SW6       29.97S
SHOW LOW       SUNNY     57   7  13 W6        30.01R
$$

AZZ023-161700-
GREATER PHOENIX AREA

CITY           SKY/WX    TMP DP  RH WIND       PRES   REMARKS
PHOENIX        SUNNY     73  19  13 SE8       29.77S
GLENDALE       SUNNY     70  19  14 E3        29.80R
DEER VALLEY    SUNNY     74  12   9 E3        29.79S
SCOTTSDALE     SUNNY     73  26  17 CALM      29.81R
MESA-FALCON    SUNNY     70  16  12 NE6       29.79S
MESA-GATEWAY   SUNNY     72  21  15 SE8       29.80S
CHANDLER       SUNNY     68  25  19 VRB6      29.80R
$$

AZZ027-028-161700-
SOUTHWEST MARICOPA COUNTY AND PINAL COUNTY

CITY           SKY/WX    TMP DP  RH WIND       PRES   REMARKS
CASA GRANDE    SUNNY     70  19  14 CALM      29.81S
GILA BEND      SUNNY     79  10   7 VRB1      29.78R
$$

AZZ503-504-507>509-161700-
SOUTHEAST ARIZONA

CITY           SKY/WX    TMP DP  RH WIND       PRES   REMARKS
TUCSON         SUNNY     71  11  10 SE5       29.87S
DAVIS-MONTHAN  SUNNY     73   8   8 E5        29.85S
RYAN FIELD       N/A     66  18  15 E5        29.86S
NOGALES        SUNNY     68  12  11 VRB3      29.90F
SIERRA VISTA   SUNNY     70   3   7 CALM      29.93S
SAFFORD        SUNNY     65  10  11 NW3       29.87F
$$

AZZ020-021-025-026-031-161700-
SOUTHWEST ARIZONA

CITY           SKY/WX    TMP DP  RH WIND       PRES   REMARKS
YUMA           NOT AVBL
$$

CAZ031-033-041-043-047-048-061-161700-
SOUTHERN CALIFORNIA

CITY           SKY/WX    TMP DP  RH WIND       PRES   REMARKS
DOWNTOWN L.A.  PTSUNNY   61  50  67 E3        29.86F
L.A. AIRPORT   PTSUNNY   61  51  70 NE3       29.87S
SAN DIEGO      CLOUDY    60  51  72 S7        29.89R
BURBANK        PTSUNNY   57  50  77 CALM      29.86F HAZE
ONTARIO        MOSUNNY   57  50  77 W6        29.87S HAZE
RIVERSIDE      CLOUDY    54  50  86 VRB3      29.88R FOG
PALM SPRINGS   SUNNY     78  28  16 CALM      29.75S
EL CENTRO NAS  SUNNY     81  29  15 N5        29.72S
IMPERIAL       SUNNY     79  37  22 NW5       29.72R
BLYTHE         SUNNY     75  24  15 CALM      29.74S
$$

NVZ020-UTZ003-161700-
SOUTHERN NEVADA-UTAH

CITY           SKY/WX    TMP DP  RH WIND       PRES   REMARKS
LAS VEGAS      NOT AVBL
SALT LAKE CITY PTSUNNY   50  22  33 N7        30.01S
$$

NMZ009-TXZ055-161700-
NEW MEXICO-WEST TEXAS

CITY           SKY/WX    TMP DP  RH WIND       PRES   REMARKS
ALBUQUERQUE    SUNNY     58  10  15 SW7       29.93R
EL PASO        MOSUNNY   63  16  16 S9        29.89S
$$


........................KEY........................
SKY/WX - SKY CONDITION/WEATHER
TMP    - TEMPERATURE IN FAHRENHEIT
DP     - DEW POINT IN FAHRENHEIT
RH     - RELATIVE HUMIDITY IN PERCENT
WIND   - DIRECTION AND SPEED IN MILES PER HOUR (MPH)
VRB    - VARIABLE WIND DIRECTION
PRES   - MEAN SEA LEVEL PRESSURE IN INCHES OF MERCURY
         F - FALLING PRESSURE   R - RISING PRESSURE
         S - STEADY PRESSURE
VSB    - VISIBILITY IN MILES
HX     - HEAT INDEX IN FAHRENHEIT
WCI    - WIND CHILL INDEX IN FAHRENHEIT
TC     - TEMPERATURE IN CELSIUS WHICH IS ALSO KNOWN AS
         TEMPERATURE IN CENTIGRADE
AFB    - AIR FORCE BASE
         LUKE AFB IS LUKE AIR FORCE BASE
         DAVIS-MONTHAN IS DAVIS-MONTHAN AIR FORCE BASE
NAS    - NAVAL AIR STATION
         EL CENTRO NAS IS EL CENTRO NAVAL AIR STATION
N/A    - NOT AVAILABLE



USA.gov is the U.S. government's official web portal to all federal, state and local government web resources and services.